When you browse on this site, cookies collect data to enhance your experience and personalize the content and advertising you see.
Visit our Privacy Policy to learn more. By continuing to use the site, you agree to this use of cookies and data.
  • In Hungary
  • List of Countries
  • For 7 days
  • Water Temperature
  • Satellite Maps
  • Weather Map
  • News
  • Weather Widgets
  • user-avatar
    Login

    Hourly Weather Nenadovichi

    Today, 17 December, Monday

    Time Temperature Precipitation Wind Pressure Humidity
    00:00 -6°C° 0.4 mm 6 mps 753 mmHg 90%
    01:00 -6°C° 0.4 mm 6 mps 753 mmHg 90%
    02:00 -5°C° 0 mm 4 mps 753 mmHg 91%
    03:00 -6°C° 0.5 mm 5 mps 753 mmHg 91%
    04:00 -6°C° 0.5 mm 5 mps 753 mmHg 92%
    05:00 -6°C° 0.5 mm 5 mps 752 mmHg 92%
    06:00 -6°C° 0.5 mm 5 mps 752 mmHg 92%
    07:00 -6°C° 0.5 mm 5 mps 753 mmHg 92%
    08:00 -7°C° 0 mm 5 mps 752 mmHg 92%
    09:00 -7°C° 0.4 mm 5 mps 752 mmHg 92%
    10:00 -7°C° 0.4 mm 5 mps 753 mmHg 92%
    11:00 -7°C° 0.4 mm 4 mps 753 mmHg 92%
    12:00 -5°C° 0.5 mm 4 mps 753 mmHg 93%
    13:00 -5°C° 0.5 mm 4 mps 753 mmHg 93%
    14:00 -5°C° 0.5 mm 4 mps 753 mmHg 93%
    15:00 -5°C° 0.4 mm 3 mps 753 mmHg 94%
    16:00 -5°C° 0.4 mm 3 mps 753 mmHg 94%
    17:00 -5°C° 0.4 mm 3 mps 753 mmHg 94%
    18:00 -5°C° 0.4 mm 3 mps 753 mmHg 95%
    19:00 -5°C° 0.4 mm 3 mps 753 mmHg 95%
    20:00 -5°C° 0.4 mm 3 mps 753 mmHg 95%
    21:00 -5°C° 0.5 mm 3 mps 754 mmHg 95%
    22:00 -6°C° 0.5 mm 3 mps 754 mmHg 95%
    23:00 -6°C° 0.5 mm 3 mps 754 mmHg 96%

    Tomorrow, 18 December, Tuesday

    Time Temperature Precipitation Wind Pressure Humidity
    00:00 -5°C° 0.4 mm 2 mps 754 mmHg 96%
    01:00 -5°C° 0.4 mm 2 mps 755 mmHg 96%
    02:00 -5°C° 0.4 mm 2 mps 755 mmHg 96%
    03:00 -5°C° 0.2 mm 2 mps 755 mmHg 96%
    04:00 -5°C° 0.2 mm 2 mps 755 mmHg 96%
    05:00 -6°C° 0.2 mm 2 mps 755 mmHg 96%
    06:00 -6°C° 0 mm 2 mps 755 mmHg 96%
    07:00 -6°C° 0 mm 2 mps 755 mmHg 96%
    08:00 -6°C° 0 mm 2 mps 755 mmHg 96%
    09:00 -5°C° 0 mm 2 mps 756 mmHg 96%
    10:00 -3°C° 0 mm 1 mps 756 mmHg 95%
    11:00 -3°C° 0 mm 1 mps 756 mmHg 95%
    12:00 -2°C° 0 mm 1 mps 756 mmHg 95%
    13:00 -2°C° 0 mm 1 mps 756 mmHg 94%
    14:00 -2°C° 0 mm 1 mps 756 mmHg 94%
    15:00 -2°C° 0 mm 1 mps 756 mmHg 94%
    16:00 -3°C° 0 mm 1 mps 756 mmHg 95%
    17:00 -3°C° 0 mm 1 mps 757 mmHg 96%
    18:00 -3°C° 0 mm 1 mps 757 mmHg 96%
    19:00 -3°C° 0 mm 1 mps 757 mmHg 96%
    20:00 -3°C° 0 mm 1 mps 757 mmHg 96%
    21:00 -3°C° 0 mm 1 mps 757 mmHg 96%
    22:00 -3°C° 0 mm 1 mps 757 mmHg 96%
    23:00 -3°C° 0 mm 1 mps 758 mmHg 95%

    Day after tomorrow, 19 December, Wednesday

    Time Temperature Precipitation Wind Pressure Humidity
    00:00 -4°C° 0 mm 1 mps 758 mmHg 95%
    01:00 -4°C° 0 mm 1 mps 758 mmHg 95%
    02:00 -7°C° 0 mm 2 mps 758 mmHg 95%
    03:00 -7°C° 0 mm 1 mps 757 mmHg 96%
    04:00 -8°C° 0 mm 1 mps 757 mmHg 96%
    05:00 -8°C° 0 mm 1 mps 757 mmHg 96%
    06:00 -9°C° 0 mm 1 mps 758 mmHg 96%
    07:00 -9°C° 0 mm 1 mps 758 mmHg 95%
    08:00 -9°C° 0 mm 1 mps 758 mmHg 95%
    09:00 -9°C° 0 mm 1 mps 758 mmHg 95%
    10:00 -9°C° 0 mm 2 mps 758 mmHg 95%
    11:00 -8°C° 0 mm 2 mps 758 mmHg 94%
    12:00 -8°C° 0 mm 2 mps 758 mmHg 94%
    13:00 -7°C° 0 mm 2 mps 758 mmHg 94%
    14:00 -7°C° 0 mm 2 mps 758 mmHg 94%
    15:00 -7°C° 0 mm 2 mps 758 mmHg 95%
    16:00 -8°C° 0 mm 2 mps 758 mmHg 95%
    17:00 -8°C° 0 mm 2 mps 758 mmHg 96%
    18:00 -8°C° 0 mm 2 mps 758 mmHg 96%
    19:00 -8°C° 0 mm 2 mps 758 mmHg 95%
    20:00 -9°C° 0 mm 3 mps 758 mmHg 95%
    21:00 -9°C° 0 mm 3 mps 758 mmHg 95%
    22:00 -9°C° 0 mm 3 mps 758 mmHg 94%
    23:00 -9°C° 0 mm 3 mps 758 mmHg 93%

    20 December, Thursday

    Time Temperature Precipitation Wind Pressure Humidity
    00:00 -9°C° 0 mm 3 mps 758 mmHg 93%
    01:00 -9°C° 0 mm 3 mps 758 mmHg 93%
    02:00 -9°C° 0 mm 3 mps 758 mmHg 93%
    03:00 -9°C° 0 mm 3 mps 757 mmHg 93%
    04:00 -11°C° 0 mm 4 mps 757 mmHg 94%
    05:00 -11°C° 0 mm 4 mps 757 mmHg 94%
    06:00 -12°C° 0 mm 4 mps 757 mmHg 94%
    07:00 -12°C° 0 mm 4 mps 757 mmHg 94%
    08:00 -12°C° 0 mm 4 mps 757 mmHg 94%
    09:00 -12°C° 0 mm 4 mps 757 mmHg 94%
    10:00 -14°C° 0 mm 4 mps 757 mmHg 93%
    11:00 -14°C° 0 mm 5 mps 757 mmHg 93%
    12:00 -12°C° 0 mm 4 mps 756 mmHg 92%
    13:00 -12°C° 0 mm 4 mps 756 mmHg 92%
    14:00 -12°C° 0 mm 4 mps 755 mmHg 91%
    15:00 -12°C° 0 mm 4 mps 755 mmHg 92%
    16:00 -14°C° 0 mm 4 mps 755 mmHg 92%
    17:00 -14°C° 0 mm 4 mps 755 mmHg 93%
    18:00 -14°C° 0 mm 4 mps 755 mmHg 93%
    19:00 -14°C° 0 mm 5 mps 755 mmHg 93%
    20:00 -13°C° 0 mm 5 mps 755 mmHg 93%
    21:00 -13°C° 0 mm 5 mps 754 mmHg 93%
    22:00 -13°C° 0 mm 5 mps 754 mmHg 93%
    23:00 -12°C° 0 mm 5 mps 754 mmHg 93%

    21 December, Friday

    Time Temperature Precipitation Wind Pressure Humidity
    00:00 -12°C° 0 mm 5 mps 754 mmHg 93%
    01:00 -12°C° 0 mm 5 mps 753 mmHg 93%
    02:00 -12°C° 0 mm 5 mps 753 mmHg 93%
    03:00 -11°C° 0 mm 5 mps 753 mmHg 93%
    04:00 -11°C° 0 mm 5 mps 752 mmHg 93%
    05:00 -11°C° 0 mm 5 mps 752 mmHg 92%
    06:00 -11°C° 0.2 mm 5 mps 752 mmHg 93%
    07:00 -11°C° 0.2 mm 5 mps 751 mmHg 93%
    08:00 -10°C° 0.2 mm 5 mps 751 mmHg 93%
    09:00 -10°C° 0.3 mm 5 mps 751 mmHg 93%
    10:00 -10°C° 0.3 mm 5 mps 751 mmHg 93%
    11:00 -8°C° 0.3 mm 5 mps 750 mmHg 93%
    12:00 -8°C° 0.2 mm 4 mps 750 mmHg 93%
    13:00 -7°C° 0.2 mm 4 mps 750 mmHg 94%
    14:00 -7°C° 0.2 mm 4 mps 749 mmHg 94%
    15:00 -7°C° 0.1 mm 4 mps 749 mmHg 94%
    16:00 -7°C° 0.1 mm 4 mps 749 mmHg 95%
    17:00 -6°C° 0.1 mm 3 mps 748 mmHg 95%
    18:00 -5°C° 0.1 mm 3 mps 748 mmHg 95%
    19:00 -5°C° 0.1 mm 3 mps 748 mmHg 95%
    20:00 -5°C° 0.1 mm 3 mps 748 mmHg 96%
    21:00 -4°C° 0 mm 3 mps 747 mmHg 95%
    22:00 -4°C° 0 mm 4 mps 747 mmHg 95%
    23:00 -4°C° 0 mm 4 mps 746 mmHg 95%

    22 December, Saturday

    Time Temperature Precipitation Wind Pressure Humidity
    00:00 -4°C° 0.1 mm 4 mps 746 mmHg 95%
    01:00 -4°C° 0.1 mm 4 mps 745 mmHg 95%
    02:00 -4°C° 0.1 mm 4 mps 745 mmHg 95%
    03:00 -4°C° 0.1 mm 4 mps 744 mmHg 95%
    04:00 -4°C° 0.1 mm 4 mps 743 mmHg 95%
    05:00 -5°C° 0.1 mm 4 mps 743 mmHg 95%
    06:00 -5°C° 0.2 mm 4 mps 742 mmHg 95%
    07:00 -4°C° 0.2 mm 4 mps 741 mmHg 95%
    08:00 -4°C° 0.2 mm 4 mps 741 mmHg 95%
    09:00 -4°C° 0.5 mm 4 mps 740 mmHg 95%
    10:00 -4°C° 0.5 mm 4 mps 740 mmHg 95%
    11:00 -4°C° 0.5 mm 4 mps 739 mmHg 95%
    12:00 -4°C° 0.3 mm 4 mps 739 mmHg 95%
    13:00 -3°C° 0.3 mm 4 mps 738 mmHg 95%
    14:00 -2°C° 0.3 mm 3 mps 738 mmHg 95%
    15:00 -4°C° 0.2 mm 3 mps 738 mmHg 95%
    16:00 -4°C° 0.2 mm 3 mps 738 mmHg 96%
    17:00 -3°C° 0.2 mm 2 mps 738 mmHg 96%
    18:00 -3°C° 0 mm 2 mps 738 mmHg 96%
    19:00 -3°C° 0 mm 2 mps 738 mmHg 96%
    20:00 -4°C° 0 mm 2 mps 738 mmHg 96%
    21:00 -4°C° 0 mm 2 mps 738 mmHg 96%
    22:00 -4°C° 0 mm 2 mps 739 mmHg 96%
    23:00 -5°C° 0 mm 3 mps 739 mmHg 96%
    Show more